SBLOSBKP

Guest
Details From SBLO - Londrina
To SBKP - Sao Paulo Viracopos
Flight Number -
Tags decoded
Created
Modified
Stats Distance 221 nm / 410 km
Max Altitude 0 ft / 0 m
Waypoints 2
Social Downloads 0
Likes 0
Share VATSIM

Download

Looking for another format? Having issues loading an existing format? Contact us
Advertisement - Login to hide

Notes

Requested: SBLO DEXOV UZ65 EDMOX UM411 PUPSI SBKP Unmatched points: DEXOV UZ65 EDMOX UM411 PUPSI

Route

SBLO SBKP

ID Type Via Altitude Latitude Longitude Leg Dist Tot Dist Heading (true) Name
O SBLO APT - 0 ft / 0 m -23.33362˚ -51.13007˚ - 0 nm - Londrina
O SBKP APT - 0 ft / 0 m -23.00738˚ -47.13452˚ 221 nm 221 nm 86° / 84° Sao Paulo Viracopos

Altitude Profile

Advertisement - Login to hide

Weather


0- 5 10 15 20 25 30 35+ Temperature / ° C

Clouds and Precipitation
Forecast for 2018-06-20 18:00 UTC. Updated 2 hours ago

Ground ~20,000 ft ~40,000 ft Winds

SBLO

Details ICAO SBLO (LDB)
Name Londrina
Region Brazil
Timezone America/Sao_Paulo (UTC-3.0)
Stats Elevation 1,867 ft / 569 m (AMSL)
Location -23.333624° -51.130072°
Runways 1
Magnetic Variation 19.150° W

METAR

SBLO 201700Z 36004KT CAVOK 25/16 Q1023

Decode

TAF

TAF SBLO 200930Z 2012/2024 00000KT CAVOK TN18/2012Z TX28/2018Z BECMG 2012/2014 10007KT BECMG 2016/2018 02007KT BECMG 2022/2024 17006KT RMK PER

Decode

Departure Runways

ID Width Length Bearing (true) Bearing (mag) Surface Threshold Offset Overrun Length
13 148 ft / 45 m 6,926 ft / 2,111 m 110.29° 129.44° Asphalt 975 ft / 297 m 0 ft / 0 m
31 148 ft / 45 m 6,926 ft / 2,111 m 290.28° 309.43° Asphalt 0 ft / 0 m 100 ft / 30 m

SBKP

Details ICAO SBKP (VCP)
Name Sao Paulo Viracopos
Region Brazil
Timezone America/Sao_Paulo (UTC-3.0)
Stats Elevation 2,170 ft / 661 m (AMSL)
Location -23.007383° -47.134522°
Runways 1
Magnetic Variation 21.258° W

METAR

SBKP 201700Z 07003KT 9999 FEW035 26/11 Q1023

Decode

TAF

TAF SBKP 201007Z 2012/2112 08005KT 9999 FEW045TX25/2018Z TN14/2108Z BECMG 2013/2015 33007KT BECMG 2021/2023 13005KT CAVOK RMK PGN

Decode

Destination Runways

ID Width Length Bearing (true) Bearing (mag) Surface Threshold Offset Overrun Length
15 148 ft / 45 m 10,639 ft / 3,243 m 127.91° 149.17° Asphalt 0 ft / 0 m 205 ft / 62 m
33 148 ft / 45 m 10,639 ft / 3,243 m 307.90° 329.16° Asphalt 0 ft / 0 m 205 ft / 62 m

Approach Navaids

Runway Type Ident Frequency Range Bearing (true) Bearing (mag) Slope Elevation
15 Localiser IKP 110.30 MHz 18 nm / 33 km 127.95° 149.21° - 2,170 ft / 661 m (AMSL)
15 Glidescope IKP 110.30 MHz 10 nm / 19 km 127.90° 149.16° 3.00° 2,170 ft / 661 m (AMSL)

Popular Alternatives